Location: Newark
(54.3386°S, 169.8415°W)
Time: 14:48:53
(UTC+00:00)

Transit 2A Rocket - Pass Details

Date: 28 October 2019
Orbit: 594 x 909 km, 66.7° (Epoch: 21 November)

Event Time Altitude Azimuth Distance (km) Brightness Sun altitude
Rises 08:57:30 0° 226° (SW) 3,518 9.9 -17.5°
Reaches altitude 10° 09:00:07 10° 219° (SW) 2,600 9.0 -17.7°
Maximum altitude 09:05:59 45° 147° (SSE) 1,235 6.2 -18.1°
Enters shadow 09:10:41 16° 79° (E) 2,215 7.0 -18.5°
Drops below altitude 10° 09:11:50 10° 74° (ENE) 2,601 - -18.6°
Sets 09:14:27 0° 68° (ENE) 3,518 - -18.7°
